Location: B?dimalle
(17.1788°N, 80.5377°E)
Time: 13:18:46
(UTC+00:00)

Courier 1B Rocket - Pass Details

Date: 12 December 2025
Orbit: 920 x 1201 km, 28.2° (Epoch: 25 January)

Event Time Altitude Azimuth Distance (km) Brightness Sun altitude
Exits shadow 00:09:25 14° 280° (W) 2,404 6.4 -11.5°
Maximum altitude 00:14:46 50° 209° (SSW) 1,175 5.4 -10.4°
Drops below altitude 10° 00:20:46 10° 135° (SE) 2,602 8.5 -9.0°
Sets 00:23:25 0° 130° (SE) 3,540 9.6 -8.4°
